FHY916 EDDL-LTAI

Flight info

Callsign FHY916
Flight time N/A
Altitude 37000
Route DODEN7Z DODEN Y853 BOMBI DCT ESATI DCT OSBIT DCT TENLO DCT LAMSI DCT SITNI DCT SASAL DCT BABIT DCT NISVA N131 RODIP DCT BELGI UN131 KOZLU
Aircraft A320/M-SDE3FGHIRWY/LB1

Departure

Time 2026-05-07 13:08
Airport Düsseldorf Airport (EDDL)

Arrival

Time N/A
Airport Antalya International Airport (LTAI)
Time Latitude Longitude Altitude Speed Heading
2026-05-07 12:56 51.27751 6.76254 137 ft 0 kts 163°
2026-05-07 13:02 51.27763 6.76247 137 ft 2 kts 162°
2026-05-07 13:02 51.27779 6.76239 137 ft 2 kts 162°
2026-05-07 13:02 51.27795 6.76231 137 ft 2 kts 161°
2026-05-07 13:02 51.27810 6.76222 137 ft 2 kts 162°
2026-05-07 13:03 51.27826 6.76214 137 ft 2 kts 166°
2026-05-07 13:03 51.27840 6.76219 137 ft 2 kts 271°
2026-05-07 13:03 51.27840 6.76236 137 ft 1 kts 272°
2026-05-07 13:03 51.27840 6.76237 137 ft 0 kts 272°
2026-05-07 13:05 51.27841 6.76210 137 ft 5 kts 271°
2026-05-07 13:05 51.27841 6.76132 137 ft 9 kts 270°
2026-05-07 13:05 51.27842 6.76005 137 ft 13 kts 271°
2026-05-07 13:06 51.27848 6.75844 137 ft 15 kts 279°
2026-05-07 13:06 51.27861 6.75674 137 ft 16 kts 277°
2026-05-07 13:06 51.27892 6.75527 136 ft 15 kts 240°
2026-05-07 13:06 51.27840 6.75387 136 ft 14 kts 272°
2026-05-07 13:07 51.27893 6.75309 134 ft 0 kts 333°
2026-05-07 13:07 51.27898 6.75305 134 ft 2 kts 333°
2026-05-07 13:07 51.27930 6.75280 132 ft 10 kts 335°
2026-05-07 13:07 51.28021 6.75331 129 ft 18 kts 50°
2026-05-07 13:08 51.28140 6.75577 132 ft 55 kts 53°
2026-05-07 13:08 51.28512 6.76361 133 ft 119 kts 52°
2026-05-07 13:08 51.29126 6.77627 167 ft 164 kts 51°
2026-05-07 13:08 51.29780 6.79014 930 ft 151 kts 50°
2026-05-07 13:09 51.30409 6.80354 1533 ft 155 kts 50°
2026-05-07 13:09 51.31123 6.81852 1663 ft 184 kts 50°
2026-05-07 13:09 51.31946 6.83578 1960 ft 206 kts 51°
2026-05-07 13:09 51.32842 6.85464 2263 ft 227 kts 51°
2026-05-07 13:10 51.33839 6.87597 2670 ft 248 kts 52°
2026-05-07 13:10 51.34716 6.90018 3369 ft 256 kts 68°
2026-05-07 13:10 51.35113 6.92826 4200 ft 262 kts 84°
2026-05-07 13:10 51.34992 6.95759 4999 ft 268 kts 98°
2026-05-07 13:11 51.34689 6.98707 5792 ft 270 kts 98°
2026-05-07 13:11 51.34389 7.01690 6570 ft 273 kts 98°
2026-05-07 13:11 51.34088 7.04705 7296 ft 276 kts 98°
2026-05-07 13:11 51.33781 7.07757 8034 ft 280 kts 98°
2026-05-07 13:12 51.33475 7.10817 8750 ft 283 kts 98°
2026-05-07 13:12 51.33010 7.13892 9464 ft 288 kts 114°
2026-05-07 13:12 51.31949 7.16627 10138 ft 291 kts 126°
2026-05-07 13:12 51.30721 7.19351 10360 ft 314 kts 126°
2026-05-07 13:13 51.29388 7.22268 10492 ft 336 kts 126°
2026-05-07 13:13 51.27958 7.25379 10623 ft 358 kts 126°
2026-05-07 13:13 51.26449 7.28667 10827 ft 374 kts 126°
2026-05-07 13:13 51.24895 7.32059 11328 ft 380 kts 126°
2026-05-07 13:14 51.23337 7.35461 11890 ft 385 kts 126°
2026-05-07 13:14 51.21749 7.38928 12461 ft 389 kts 126°
2026-05-07 13:14 51.20146 7.42428 13022 ft 393 kts 126°
2026-05-07 13:14 51.18525 7.45962 13592 ft 397 kts 126°
2026-05-07 13:15 51.16879 7.49545 14124 ft 401 kts 126°
2026-05-07 13:15 51.15227 7.53145 14646 ft 404 kts 126°
2026-05-07 13:15 51.13561 7.56776 15164 ft 407 kts 126°
2026-05-07 13:15 51.11878 7.60430 15704 ft 410 kts 127°
2026-05-07 13:16 51.10183 7.64097 16245 ft 412 kts 127°
2026-05-07 13:16 51.08498 7.67740 16759 ft 415 kts 127°
2026-05-07 13:16 51.06780 7.71451 17281 ft 418 kts 127°
2026-05-07 13:16 51.05054 7.75176 17781 ft 420 kts 127°
2026-05-07 13:17 51.03315 7.78926 18277 ft 422 kts 127°
2026-05-07 13:17 51.01565 7.82693 18697 ft 425 kts 127°
2026-05-07 13:17 50.99804 7.86472 19106 ft 427 kts 127°
2026-05-07 13:17 50.98028 7.90271 19505 ft 429 kts 127°
2026-05-07 13:18 50.96243 7.94087 19916 ft 431 kts 127°
2026-05-07 13:18 50.94447 7.97921 20294 ft 433 kts 127°
2026-05-07 13:18 50.92646 8.01762 20664 ft 435 kts 127°
2026-05-07 13:18 50.90835 8.05622 21032 ft 437 kts 127°
2026-05-07 13:19 50.89014 8.09494 21382 ft 439 kts 127°
2026-05-07 13:19 50.87205 8.13336 21716 ft 442 kts 127°
2026-05-07 13:19 50.85364 8.17249 22050 ft 444 kts 127°
2026-05-07 13:19 50.83515 8.21172 22380 ft 446 kts 127°
2026-05-07 13:20 50.81652 8.25117 22699 ft 448 kts 127°
2026-05-07 13:20 50.79784 8.29066 23008 ft 450 kts 127°
2026-05-07 13:20 50.77894 8.33054 23306 ft 452 kts 127°
2026-05-07 13:20 50.76002 8.37032 23603 ft 454 kts 127°
2026-05-07 13:21 50.74097 8.41026 23868 ft 456 kts 127°
2026-05-07 13:21 50.72181 8.45043 24135 ft 457 kts 127°
2026-05-07 13:21 50.70291 8.49005 24387 ft 458 kts 127°
2026-05-07 13:21 50.68370 8.53023 24635 ft 460 kts 127°
2026-05-07 13:22 50.66442 8.57049 24861 ft 461 kts 127°
2026-05-07 13:22 50.64507 8.61088 25090 ft 462 kts 127°
2026-05-07 13:22 50.62564 8.65140 25312 ft 464 kts 127°
2026-05-07 13:22 50.60614 8.69198 25516 ft 465 kts 127°
2026-05-07 13:23 50.58655 8.73270 25738 ft 466 kts 127°
2026-05-07 13:23 50.56692 8.77342 25935 ft 468 kts 127°
2026-05-07 13:23 50.54720 8.81421 26123 ft 469 kts 128°
2026-05-07 13:23 50.52739 8.85512 26299 ft 470 kts 127°
2026-05-07 13:24 50.50759 8.89598 26517 ft 470 kts 127°
2026-05-07 13:24 50.48778 8.93681 26790 ft 469 kts 128°
2026-05-07 13:24 50.46802 8.97751 27054 ft 468 kts 128°
2026-05-07 13:24 50.44827 9.01810 27333 ft 467 kts 128°
2026-05-07 13:25 50.42853 9.05856 27611 ft 466 kts 128°
2026-05-07 13:25 50.40905 9.09838 27889 ft 465 kts 128°
2026-05-07 13:25 50.38932 9.13868 28166 ft 465 kts 128°
2026-05-07 13:25 50.36964 9.17880 28437 ft 464 kts 128°
2026-05-07 13:26 50.34996 9.21885 28700 ft 464 kts 128°
2026-05-07 13:26 50.33028 9.25890 28951 ft 463 kts 128°
2026-05-07 13:26 50.31063 9.29892 29211 ft 463 kts 128°
2026-05-07 13:26 50.29102 9.33879 29497 ft 462 kts 128°
2026-05-07 13:27 50.27141 9.37860 29780 ft 461 kts 128°
2026-05-07 13:27 50.25180 9.41829 30073 ft 460 kts 128°
2026-05-07 13:27 50.23225 9.45775 30330 ft 459 kts 128°
2026-05-07 13:27 50.21268 9.49722 30564 ft 458 kts 128°
2026-05-07 13:28 50.19319 9.53650 30784 ft 458 kts 128°
2026-05-07 13:28 50.17369 9.57571 31001 ft 457 kts 128°
2026-05-07 13:28 50.15412 9.61489 31217 ft 457 kts 128°
2026-05-07 13:28 50.13457 9.65403 31430 ft 457 kts 128°